TimeCST,TemperatureF,Dew PointF,Humidity,Sea Level PressureIn,VisibilityMPH,Wind Direction,Wind SpeedMPH,Gust SpeedMPH,PrecipitationIn,Events,Conditions,WindDirDegrees,DateUTC
12:52 AM,12.9,5.0,71,30.29,7.0,WNW,13.8,-,0.00,Snow,Light Snow,300,2013-01-21 06:52:00
1:52 AM,12.9,5.0,71,30.28,9.0,West,19.6,24.2,0.00,,Overcast,280,2013-01-21 07:52:00
2:52 AM,12.0,3.0,67,30.27,10.0,WNW,15.0,25.3,0.00,,Mostly Cloudy,300,2013-01-21 08:52:00
3:49 AM,8.6,1.4,73,30.24,10.0,West,13.8,23.0,N/A,,Scattered Clouds,280,2013-01-21 09:49:00
3:52 AM,9.0,1.9,73,30.27,10.0,West,11.5,21.9,N/A,,Partly Cloudy,280,2013-01-21 09:52:00
4:43 AM,8.6,1.4,73,30.24,10.0,West,15.0,-,N/A,,Mostly Cloudy,280,2013-01-21 10:43:00
4:52 AM,8.1,-0.0,70,30.27,10.0,West,17.3,-,N/A,,Mostly Cloudy,280,2013-01-21 10:52:00
5:52 AM,8.1,-0.9,67,30.29,10.0,WNW,16.1,28.8,N/A,,Overcast,300,2013-01-21 11:52:00
6:45 AM,6.8,-2.2,67,30.27,10.0,NW,18.4,27.6,N/A,,Scattered Clouds,310,2013-01-21 12:45:00
6:52 AM,6.1,-2.9,67,30.31,10.0,NW,18.4,27.6,N/A,,Scattered Clouds,320,2013-01-21 12:52:00
7:52 AM,3.0,-9.0,57,30.33,10.0,WNW,19.6,29.9,N/A,,Scattered Clouds,300,2013-01-21 13:52:00
8:52 AM,3.0,-9.0,57,30.36,10.0,NW,17.3,27.6,N/A,,Clear,310,2013-01-21 14:52:00
9:52 AM,3.9,-7.1,60,30.37,10.0,WNW,18.4,-,N/A,,Mostly Cloudy,300,2013-01-21 15:52:00
10:08 AM,5.0,-7.6,56,30.33,10.0,WNW,15.0,24.2,N/A,,Scattered Clouds,290,2013-01-21 16:08:00
10:52 AM,6.1,-7.1,55,30.38,10.0,WNW,16.1,25.3,N/A,,Clear,300,2013-01-21 16:52:00
11:52 AM,8.1,-7.1,50,30.36,10.0,WNW,18.4,26.5,N/A,,Clear,300,2013-01-21 17:52:00
12:52 PM,9.0,-8.0,46,30.34,10.0,WNW,20.7,27.6,N/A,,Clear,290,2013-01-21 18:52:00
1:52 PM,10.0,-8.0,44,30.33,10.0,West,17.3,24.2,N/A,,Clear,280,2013-01-21 19:52:00
2:52 PM,10.0,-7.1,46,30.33,10.0,West,18.4,26.5,N/A,,Clear,280,2013-01-21 20:52:00
3:52 PM,10.0,-6.0,48,30.34,10.0,West,17.3,23.0,N/A,,Partly Cloudy,280,2013-01-21 21:52:00
4:52 PM,6.1,-2.9,67,30.34,10.0,WSW,11.5,20.7,N/A,,Clear,250,2013-01-21 22:52:00
5:52 PM,6.1,-2.9,67,30.35,10.0,WSW,13.8,-,N/A,,Partly Cloudy,250,2013-01-21 23:52:00
6:52 PM,5.0,-4.0,66,30.36,10.0,West,17.3,-,N/A,,Clear,270,2013-01-22 00:52:00
7:52 PM,5.0,-5.1,63,30.36,10.0,West,19.6,27.6,N/A,,Clear,280,2013-01-22 01:52:00
8:52 PM,3.9,-4.0,70,30.37,10.0,West,15.0,21.9,N/A,,Clear,280,2013-01-22 02:52:00
9:52 PM,3.2,-4.0,72,30.33,10.0,West,15.0,23.0,N/A,,Clear,280,2013-01-22 03:52:00
10:52 PM,3.9,-4.0,70,30.39,10.0,West,11.5,23.0,N/A,,Clear,280,2013-01-22 04:52:00
11:52 PM,3.0,-4.0,73,30.38,10.0,WNW,11.5,-,N/A,,Clear,290,2013-01-22 05:52:00